This is the latest recevied weather packets stored in our database for station/object N0MPM-4. If no packets are shown the sender has not sent any weather packets the latest 10 day(s).
| Time | Temp. | Humidity | Pressure | Rain* | Wind** | Luminosity | Snow |
|---|---|---|---|---|---|---|---|
| 1787847778 | 25° C | 68% | 1018.4 hPa | 0 mm | - | - | - |
| 1787847719 | 25° C | 69% | 1018.4 hPa | 0 mm | - | - | - |
| 1787847478 | 25° C | 72% | 1018.4 hPa | 0 mm | - | - | - |
| 1787847359 | 24.44° C | 72% | 1018.5 hPa | 0 mm | - | - | - |
| 1787847178 | 24.44° C | 71% | 1018.4 hPa | 0 mm | - | - | - |
| 1787847000 | 24.44° C | 73% | 1018.4 hPa | 0 mm | - | - | - |
| 1787846878 | 24.44° C | 71% | 1018.5 hPa | 0 mm | - | - | - |
| 1787846639 | 24.44° C | 70% | 1018.4 hPa | 0 mm | - | - | - |
| 1787846578 | 24.44° C | 70% | 1018.4 hPa | 0 mm | - | - | - |
| 1787846278 | 24.44° C | 70% | 1018.4 hPa | 0 mm | - | - | - |
| 1787845978 | 24.44° C | 73% | 1018.4 hPa | 0 mm | - | - | - |
| 1787845920 | 24.44° C | 73% | 1018.4 hPa | 0 mm | - | - | - |
| 1787845678 | 23.89° C | 72% | 1018.4 hPa | 0 mm | - | - | - |
| 1787845559 | 23.89° C | 71% | 1018.4 hPa | 0 mm | - | - | - |
| 1787845378 | 24.44° C | 73% | 1018.4 hPa | 0 mm | - | - | - |
| 1787845200 | 24.44° C | 71% | 1018.4 hPa | 0 mm | - | - | - |
| 1787845078 | 24.44° C | 71% | 1018.4 hPa | 0 mm | - | - | - |
| 1787844840 | 24.44° C | 74% | 1018.4 hPa | 0 mm | - | - | - |
| 1787844778 | 24.44° C | 76% | 1018.4 hPa | 0 mm | - | - | - |
| 1787844478 | 23.89° C | 73% | 1018.4 hPa | 0 mm | - | - | - |
| 1787844178 | 23.33° C | 75% | 1018.4 hPa | 0 mm | - | - | - |
| 1787844120 | 23.33° C | 75% | 1018.4 hPa | 0 mm | - | - | - |
| 1787843897 | 22.78° C | 76% | 1018.3 hPa | 0 mm | - | - | - |
| 1787843878 | 23.33° C | 77% | 1018.4 hPa | 0 mm | - | - | - |
| 1787843759 | 22.78° C | 75% | 1018.4 hPa | 0 mm | - | - | - |
* Rain latest hour (hover to see other rain measurements)
** Current wind speed in m/s (hover to see current wind gust speed)